sat.trackr.live / text

‹ back to catalog

STARLINK-34562

NORAD 64725 · 2025-144B

PAYLOAD ACTIVE UNKNOWN

§ Identity

Operator
Country
US
Launch date
2025-07-02
Launch site
AFETR
Launch vehicle
Mass (kg)
RCS (m²)

Purposes: comms

External: N2YO · Heavens-Above · Gunter

§ Orbital elements

Epoch: 2026-05-25T03:16:13.428192Z

Period
94.11 min
Inclination
53.1578°
Eccentricity
0.0001198
Mean motion
15.30200068 rev/d
Perigee alt
474.4 km
Apogee alt
476.0 km
Semi-major
6,853.4 km
B*
3.9274e-4
RAAN
186.1404°
Arg perigee
88.3260°
Mean anomaly
271.7878°
Rev number
5,139

§ Raw data

STARLINK-345621 64725U 25144B   26145.13626653  .00011290  00000+0  39274-3 0  99902 64725  53.1578 186.1404 0001198  88.3260 271.7878 15.30200068 51398

JSON: /api/v1/satellites/64725 · /tle

For live sub-satellite position, see the globe view (requires WebGL).

§ Visibility from observer

Set your observer location to see the next 7 days of passes ≥ 10°. The values pass through the URL so the page stays shareable.

No JS? Fill the form by hand. The geolocation button needs JavaScript.